NOAA 16 DEB, 41365

Orbit data source: Space-Track

NOAA 16 DEB, 41365 is space debris in SSO originally from a launch on Thu, 21 Sep 2000 UTC launched from the Air Force Western Test Range (AFWTR). Debris objects in space refer to the collection of defunct objects orbiting the Earth. Examples of debris include non-operational satellites, rocket bodies, and fragments generated from explosions, collisions, or faulty payload assembly.

Loading next visibility...
Identifier
41365, 2000-055JJ
Orbit
SSO
Country
Flag of USUS
Related business
Manufacturer
Unknown
Mission
Spacecraft
Bus & Motor
Unknown
Mass
Unknown
Launch date (UTC)
2000-09-21 (26 years ago)
Launch vehicle
Unknown
Launch site
Air Force Western Test Range (AFWTR)
Object type
Payload
Rocket body
Debris
Shape & HBR
Unknown shape, 0.1 m
Radar Cross Section
Medium (>0.1 m² and <1 m²)

Expand to show TLE details & history
Last TLE update: 6 days ago

TLE from 6 days ago
0 NOAA 16 DEB
1 41365U 00055JJ  26167.33951761  .00007305  00000-0  15822-2 0  9991
2 41365  98.9297 356.4600 0027727 111.0735 249.3430 14.58278363539472
Epoch: 2026-06-16T08:08Z
TLE epoch observation values (Epoch: 2026-06-16T08:08:54.321Z)
Latitude
-0.00008°
Longitude
-30.37929°
Altitude
708.669 km
Speed
7.498 km/s
True Right ascension
23h 45m 50s
True Declination
0° 00' 00"
Sunlit
Object was in daylight at epoch
Visualization orbit readout
Latitude
Unknown
Longitude
Unknown
Altitude
Unknown
Speed
Unknown
Apparent Right ascension
Unknown
Apparent Declination
Unknown
Sunlit
N/A
Visualization observer readout
Local Sidereal Time
23:18:52
Azimuth
Unknown
Elevation
Unknown
Doppler factor
Unknown
Orbital elements
Apogee altitude
715.471 km
Perigee altitude
676.243 km
Semi-major axis
7,073.994 km
Eccentricity
0.00277
Inclination
98.9297°
RAAN
356.46°
Arg. of periapsis
111.0735°
True anomaly
249.04606°
Mean anomaly
249.343°
Eccentric anomaly
249.1945°
Mean motion
3.64793 °/min
Orbital period
98.69 mins
BSTAR
0.0015822
Loading maneuver chart data...
Computing Atmospheric mass density...
Loading historical data...
Loading historical data...
Loading historical data...
Loading historical data...
Loading historical data...
Loading historical data...
Loading historical data...

Documentation

Showing up to 5 results
|